• In Belgium
  • List of Countries
  • For 7 days
  • Water Temperature
  • Satellite Maps
  • Weather Map
  • Weather Widgets
  • user-avatar
    Login

    Hourly Weather Roza

    Today, 21 April, Saturday

    Time Temperature Precipitation Wind Pressure Humidity
    00:00 +10°C° 0 mm 2 mps 737 mmHg 65%
    01:00 +9°C° 0 mm 2 mps 736 mmHg 67%
    02:00 +9°C° 0 mm 3 mps 736 mmHg 69%
    03:00 +9°C° 0 mm 3 mps 736 mmHg 70%
    04:00 +8°C° 0 mm 3 mps 735 mmHg 70%
    05:00 +8°C° 0 mm 3 mps 734 mmHg 71%
    06:00 +10°C° 0 mm 4 mps 734 mmHg 66%
    07:00 +11°C° 0 mm 4 mps 734 mmHg 61%
    08:00 +13°C° 0 mm 5 mps 734 mmHg 56%
    09:00 +15°C° 0 mm 5 mps 733 mmHg 52%
    10:00 +19°C° 0 mm 6 mps 733 mmHg 48%
    11:00 +21°C° 0 mm 6 mps 733 mmHg 44%
    12:00 +22°C° 0 mm 7 mps 733 mmHg 44%
    13:00 +23°C° 0 mm 7 mps 732 mmHg 44%
    14:00 +24°C° 0 mm 8 mps 732 mmHg 44%
    15:00 +23°C° 0 mm 7 mps 732 mmHg 47%
    16:00 +23°C° 0 mm 6 mps 732 mmHg 51%
    17:00 +22°C° 0 mm 5 mps 731 mmHg 54%
    18:00 +20°C° 0.2 mm 4 mps 731 mmHg 58%
    19:00 +18°C° 0.2 mm 4 mps 731 mmHg 61%
    20:00 +17°C° 0.2 mm 4 mps 732 mmHg 64%
    21:00 +14°C° 0 mm 3 mps 732 mmHg 67%
    22:00 +13°C° 0 mm 3 mps 732 mmHg 70%
    23:00 +12°C° 0 mm 3 mps 732 mmHg 72%

    Tomorrow, 22 April, Sunday

    Time Temperature Precipitation Wind Pressure Humidity
    00:00 +12°C° 0 mm 2 mps 733 mmHg 73%
    01:00 +10°C° 0 mm 2 mps 733 mmHg 73%
    02:00 +9°C° 0 mm 2 mps 733 mmHg 73%
    03:00 +8°C° 0 mm 2 mps 733 mmHg 73%
    04:00 +7°C° 0 mm 2 mps 733 mmHg 72%
    05:00 +7°C° 0 mm 2 mps 733 mmHg 72%
    06:00 +8°C° 0 mm 2 mps 733 mmHg 68%
    07:00 +9°C° 0 mm 2 mps 734 mmHg 63%
    08:00 +10°C° 0 mm 2 mps 734 mmHg 59%
    09:00 +12°C° 0 mm 3 mps 734 mmHg 54%
    10:00 +13°C° 0 mm 3 mps 734 mmHg 49%
    11:00 +16°C° 0 mm 3 mps 734 mmHg 44%
    12:00 +17°C° 0 mm 3 mps 734 mmHg 42%
    13:00 +17°C° 0 mm 4 mps 733 mmHg 40%
    14:00 +18°C° 0 mm 4 mps 733 mmHg 39%
    15:00 +18°C° 0 mm 4 mps 733 mmHg 39%
    16:00 +18°C° 0 mm 3 mps 733 mmHg 40%
    17:00 +18°C° 0 mm 3 mps 732 mmHg 41%
    18:00 +16°C° 0 mm 3 mps 732 mmHg 47%
    19:00 +14°C° 0 mm 2 mps 732 mmHg 52%
    20:00 +12°C° 0 mm 1 mps 732 mmHg 58%
    21:00 +12°C° 0 mm 1 mps 732 mmHg 59%
    22:00 +11°C° 0 mm 1 mps 733 mmHg 61%
    23:00 +10°C° 0 mm 1 mps 733 mmHg 63%

    Day after tomorrow, 23 April, Monday

    Time Temperature Precipitation Wind Pressure Humidity
    00:00 +10°C° 0 mm 1 mps 733 mmHg 64%
    01:00 +10°C° 0 mm 1 mps 733 mmHg 64%
    02:00 +9°C° 0 mm 1 mps 732 mmHg 65%
    03:00 +9°C° 0 mm 1 mps 732 mmHg 67%
    04:00 +8°C° 0 mm 1 mps 732 mmHg 69%
    05:00 +8°C° 0 mm 1 mps 732 mmHg 70%
    06:00 +8°C° 0 mm 0 mps 732 mmHg 66%
    07:00 +10°C° 0 mm 0 mps 732 mmHg 62%
    08:00 +12°C° 0 mm 0 mps 732 mmHg 58%
    09:00 +13°C° 0 mm 0 mps 732 mmHg 52%
    10:00 +16°C° 0 mm 1 mps 732 mmHg 47%
    11:00 +19°C° 0 mm 1 mps 732 mmHg 42%
    12:00 +20°C° 0 mm 1 mps 732 mmHg 40%
    13:00 +19°C° 0 mm 2 mps 731 mmHg 38%
    14:00 +20°C° 0 mm 2 mps 731 mmHg 36%
    15:00 +20°C° 0 mm 2 mps 731 mmHg 37%
    16:00 +21°C° 0 mm 2 mps 730 mmHg 38%
    17:00 +21°C° 0 mm 2 mps 730 mmHg 40%
    18:00 +19°C° 0.6 mm 2 mps 729 mmHg 48%
    19:00 +17°C° 0.6 mm 2 mps 729 mmHg 56%
    20:00 +16°C° 0.6 mm 2 mps 728 mmHg 65%
    21:00 +14°C° 1.9 mm 3 mps 728 mmHg 73%
    22:00 +13°C° 1.9 mm 3 mps 728 mmHg 81%
    23:00 +13°C° 1.9 mm 3 mps 728 mmHg 89%

    24 April, Tuesday

    Time Temperature Precipitation Wind Pressure Humidity
    00:00 +13°C° 0.1 mm 3 mps 728 mmHg 91%
    01:00 +13°C° 0.1 mm 3 mps 728 mmHg 93%
    02:00 +13°C° 0.1 mm 3 mps 727 mmHg 95%
    03:00 +12°C° 0.1 mm 3 mps 728 mmHg 95%
    04:00 +12°C° 0.1 mm 3 mps 728 mmHg 96%
    05:00 +12°C° 0.1 mm 3 mps 729 mmHg 96%
    06:00 +12°C° 0.2 mm 4 mps 729 mmHg 93%
    07:00 +12°C° 0.2 mm 4 mps 730 mmHg 91%
    08:00 +13°C° 0.2 mm 4 mps 730 mmHg 88%
    09:00 +13°C° 0.1 mm 5 mps 731 mmHg 79%
    10:00 +14°C° 0.1 mm 5 mps 731 mmHg 69%
    11:00 +15°C° 0.1 mm 5 mps 732 mmHg 60%
    12:00 +15°C° 0 mm 5 mps 732 mmHg 59%
    13:00 +15°C° 0 mm 5 mps 732 mmHg 58%
    14:00 +15°C° 0 mm 5 mps 732 mmHg 57%
    15:00 +16°C° 0 mm 5 mps 731 mmHg 56%
    16:00 +16°C° 0 mm 5 mps 731 mmHg 55%
    17:00 +17°C° 0 mm 4 mps 731 mmHg 54%
    18:00 +15°C° 0 mm 4 mps 731 mmHg 59%
    19:00 +14°C° 0 mm 3 mps 731 mmHg 64%
    20:00 +14°C° 0 mm 2 mps 731 mmHg 69%
    21:00 +13°C° 0 mm 2 mps 731 mmHg 71%
    22:00 +12°C° 0 mm 3 mps 731 mmHg 73%
    23:00 +11°C° 0 mm 3 mps 731 mmHg 75%

    25 April, Wednesday

    Time Temperature Precipitation Wind Pressure Humidity
    00:00 +11°C° 0 mm 3 mps 731 mmHg 75%
    01:00 +11°C° 0 mm 4 mps 731 mmHg 74%
    02:00 +11°C° 0 mm 4 mps 731 mmHg 74%
    03:00 +11°C° 0 mm 4 mps 731 mmHg 74%
    04:00 +11°C° 0 mm 4 mps 731 mmHg 75%
    05:00 +11°C° 0 mm 4 mps 730 mmHg 75%
    06:00 +12°C° 0 mm 4 mps 731 mmHg 73%
    07:00 +13°C° 0 mm 4 mps 731 mmHg 71%
    08:00 +14°C° 0 mm 4 mps 731 mmHg 69%
    09:00 +15°C° 0 mm 5 mps 731 mmHg 63%
    10:00 +17°C° 0 mm 5 mps 731 mmHg 58%
    11:00 +20°C° 0 mm 6 mps 731 mmHg 52%
    12:00 +20°C° 0 mm 6 mps 731 mmHg 51%
    13:00 +21°C° 0 mm 6 mps 731 mmHg 49%
    14:00 +22°C° 0 mm 6 mps 730 mmHg 47%
    15:00 +22°C° 0 mm 6 mps 730 mmHg 49%
    16:00 +22°C° 0 mm 5 mps 729 mmHg 51%
    17:00 +22°C° 0 mm 4 mps 729 mmHg 53%
    18:00 +20°C° 0.2 mm 4 mps 729 mmHg 58%
    19:00 +19°C° 0.2 mm 3 mps 728 mmHg 63%
    20:00 +17°C° 0.2 mm 3 mps 728 mmHg 69%
    21:00 +17°C° 0.4 mm 3 mps 728 mmHg 74%
    22:00 +16°C° 0.4 mm 3 mps 728 mmHg 79%
    23:00 +14°C° 0.4 mm 3 mps 728 mmHg 85%

    26 April, Thursday

    Time Temperature Precipitation Wind Pressure Humidity
    00:00 +14°C° 0.4 mm 3 mps 727 mmHg 87%
    01:00 +14°C° 0.4 mm 3 mps 727 mmHg 90%
    02:00 +13°C° 0.4 mm 4 mps 727 mmHg 92%
    03:00 +13°C° 0 mm 4 mps 727 mmHg 92%
    04:00 +13°C° 0 mm 4 mps 727 mmHg 92%
    05:00 +13°C° 0 mm 4 mps 727 mmHg 92%
    06:00 +14°C° 0 mm 4 mps 727 mmHg 88%
    07:00 +15°C° 0 mm 4 mps 728 mmHg 84%
    08:00 +16°C° 0 mm 5 mps 728 mmHg 80%
    09:00 +16°C° 0 mm 5 mps 728 mmHg 74%
    10:00 +17°C° 0 mm 5 mps 729 mmHg 69%
    11:00 +19°C° 0 mm 5 mps 729 mmHg 64%
    12:00 +19°C° 0.2 mm 5 mps 729 mmHg 63%
    13:00 +19°C° 0.2 mm 4 mps 729 mmHg 63%
    14:00 +19°C° 0.2 mm 4 mps 729 mmHg 62%
    15:00 +18°C° 0.7 mm 4 mps 729 mmHg 68%
    16:00 +17°C° 0.7 mm 4 mps 729 mmHg 74%
    17:00 +15°C° 0.7 mm 4 mps 728 mmHg 80%
    18:00 +14°C° 0.3 mm 4 mps 729 mmHg 81%
    19:00 +13°C° 0.3 mm 4 mps 729 mmHg 83%
    20:00 +13°C° 0.3 mm 5 mps 729 mmHg 84%
    21:00 +12°C° 0 mm 5 mps 729 mmHg 83%
    22:00 +11°C° 0 mm 4 mps 730 mmHg 81%
    23:00 +10°C° 0 mm 4 mps 730 mmHg 79%
    Show more